IRIDIUM 106 1 41917U 17003A 26169.76993285 .00000074 00000+0 19385-4 0 9996 2 41917 86.3961 87.8947 0001895 87.2592 272.8821 14.34218000493432 IRIDIUM 103 1 41918U 17003B 26169.75724865 .00000019 00000+0 -26212-6 0 9991 2 41918 86.3963 87.7998 0002171 76.9683 283.1755 14.34217564493451 IRIDIUM 109 1 41919U 17003C 26169.76359096 .00000154 00000+0 47912-4 0 9990 2 41919 86.3963 87.8566 0002291 83.2337 276.9119 14.34218420493427 IRIDIUM 102 1 41920U 17003D 26169.80164213 .00000189 00000+0 60576-4 0 9991 2 41920 86.3961 87.7642 0002232 85.7853 274.3597 14.34219827493510 IRIDIUM 105 1 41921U 17003E 26169.76024583 .00000192 00000+0 61534-4 0 9991 2 41921 86.3963 56.2123 0002523 83.0412 277.1070 14.34216850495368 IRIDIUM 104 1 41922U 17003F 26169.74456360 .00000019 00000+0 -15648-6 0 9998 2 41922 86.3962 87.8306 0002323 79.7297 280.4161 14.34217654493495 IRIDIUM 114 1 41923U 17003G 26169.75090588 .00000050 00000+0 10686-4 0 9995 2 41923 86.3962 87.8112 0002310 80.8079 279.3378 14.34217867493479 IRIDIUM 108 1 41924U 17003H 26169.70942133 .00000196 00000+0 62956-4 0 9991 2 41924 86.3957 56.1239 0002251 86.3321 273.8132 14.34220176495328 IRIDIUM 112 1 41925U 17003J 26169.73822067 .00000040 00000+0 70792-5 0 9994 2 41925 86.3957 87.6585 0002357 84.0914 276.0550 14.34218244493490 IRIDIUM 111 1 41926U 17003K 26169.79531257 .00000212 00000+0 68688-4 0 9990 2 41926 86.3960 87.7052 0002248 83.0881 277.0571 14.34218496493488 IRIDIUM 113 1 42803U 17039A 26169.42642583 .00000017 00000+0 -95394-6 0 9999 2 42803 86.3967 321.6607 0002161 89.1855 270.9589 14.34217648471360 IRIDIUM 123 1 42804U 17039B 26169.60744046 .00000057 00000+0 13217-4 0 9992 2 42804 86.3972 353.0433 0001989 86.9833 273.1591 14.34217891470155 IRIDIUM 120 1 42805U 17039C 26169.42008350 .00000206 00000+0 66523-4 0 9998 2 42805 86.3960 321.4454 0002037 95.7037 264.4391 14.34217050471355 IRIDIUM 115 1 42806U 17039D 26169.71318064 .00000317 00000+0 88254-4 0 9995 2 42806 86.4498 321.4517 0002007 91.6338 268.5093 14.43277025474488 IRIDIUM 118 1 42807U 17039E 26169.77869015 .00000180 00000+0 57100-4 0 9993 2 42807 86.3972 352.9699 0002202 88.8233 271.3215 14.34217347470175 IRIDIUM 117 1 42808U 17039F 26169.51864476 -.00000008 00000+0 -99699-5 0 9993 2 42808 86.3967 353.0363 0001998 87.1778 272.9647 14.34217472470161 IRIDIUM 126 1 42809U 17039G 26169.75331860 .00000120 00000+0 35839-4 0 9994 2 42809 86.3970 352.9891 0002230 87.4211 272.7240 14.34217320470175 IRIDIUM 124 1 42810U 17039H 26169.85499375 .00000321 00000+0 89310-4 0 9999 2 42810 86.4484 289.6612 0002182 93.3657 266.7794 14.43279062475354 IRIDIUM 128 1 42811U 17039J 26169.60452183 -.00000014 00000+0 -12211-4 0 9996 2 42811 86.3963 24.5575 0001905 88.9879 271.1535 14.34217434470182 IRIDIUM 121 1 42812U 17039K 26169.77234862 -.00000142 00000+0 -57902-4 0 9995 2 42812 86.3967 353.0087 0002036 92.5664 267.5765 14.34216740470053 IRIDIUM 133 1 42955U 17061A 26169.84554044 .00000043 00000+0 83378-5 0 9998 2 42955 86.3969 24.5748 0002088 87.2352 272.9083 14.34217322455018 IRIDIUM 100 1 42956U 17061B 26169.69966075 .00000070 00000+0 17801-4 0 9990 2 42956 86.3967 24.5544 0002150 87.2735 272.8707 14.34217317454998 IRIDIUM 122 1 42957U 17061C 26169.87725359 .00000032 00000+0 45107-5 0 9998 2 42957 86.3967 24.4802 0002152 84.2586 275.8855 14.34217802455029 IRIDIUM 129 1 42958U 17061D 26169.83285547 .00000033 00000+0 47477-5 0 9998 2 42958 86.3968 24.5660 0002394 85.1453 275.0016 14.34217901455037 IRIDIUM 119 1 42959U 17061E 26169.87090889 .00000109 00000+0 31932-4 0 9998 2 42959 86.3967 24.5458 0002198 83.9701 276.1746 14.34218811455051 IRIDIUM 107 1 42960U 17061F 26169.88993859 .00000217 00000+0 70480-4 0 9991 2 42960 86.3968 24.5590 0001930 82.7232 277.4184 14.34217855455068 IRIDIUM 132 1 42961U 17061G 26169.82651262 .00000060 00000+0 14231-4 0 9993 2 42961 86.3967 24.5650 0002146 85.4795 274.6645 14.34217953455058 IRIDIUM 136 1 42962U 17061H 26169.85823124 .00000184 00000+0 58640-4 0 9994 2 42962 86.3968 24.5584 0002185 88.3406 271.8040 14.34220183455079 IRIDIUM 139 1 42963U 17061J 26169.86456838 -.00000024 00000+0 -15612-4 0 9997 2 42963 86.3967 24.6178 0001965 88.3391 271.8030 14.34217340455088 IRIDIUM 125 1 42964U 17061K 26169.85189346 .00000203 00000+0 65252-4 0 9996 2 42964 86.3971 24.6842 0002134 72.6063 287.5366 14.34215139455094 IRIDIUM 135 1 43070U 17083A 26169.68647270 -.00000019 00000+0 -13721-4 0 9996 2 43070 86.3961 321.3885 0002070 91.8075 268.3357 14.34217196444361 IRIDIUM 138 1 43071U 17083B 26169.78161045 .00000083 00000+0 22615-4 0 9990 2 43071 86.3980 321.0442 0002311 87.0487 273.0973 14.34217837444360 IRIDIUM 116 1 43072U 17083C 26169.81966597 -.00000010 00000+0 -10517-4 0 9990 2 43072 86.3960 321.3187 0001898 100.0469 260.0940 14.34217458444407 IRIDIUM 130 1 43073U 17083D 26169.78794905 .00000152 00000+0 47365-4 0 9995 2 43073 86.3974 321.6072 0001949 93.1410 267.0008 14.34219322444341 IRIDIUM 151 1 43074U 17083E 26169.69281516 -.00000008 00000+0 -99528-5 0 9996 2 43074 86.3962 321.4296 0002053 93.4528 266.6903 14.34217278444353 IRIDIUM 134 1 43075U 17083F 26169.66110228 -.00000050 00000+0 -24927-4 0 9992 2 43075 86.3963 321.4509 0002004 91.9399 268.2026 14.34216953444316 IRIDIUM 137 1 43076U 17083G 26169.39471250 .00000010 00000+0 -35009-5 0 9997 2 43076 86.3965 321.6551 0002199 104.2721 255.8719 14.34217627444343 IRIDIUM 141 1 43077U 17083H 26169.38836970 .00000021 00000+0 52348-6 0 9998 2 43077 86.3964 321.4880 0002229 90.9844 269.1607 14.34217760444349 IRIDIUM 153 1 43078U 17083J 26169.75916029 .00000038 00000+0 64022-5 0 9993 2 43078 86.3962 289.8134 0002234 89.7662 270.3790 14.34217690445505 IRIDIUM 131 1 43079U 17083K 26169.65475782 .00000137 00000+0 42029-4 0 9991 2 43079 86.3970 321.5627 0002215 91.9978 268.1472 14.34217601444312 IRIDIUM 144 1 43249U 18030A 26169.76550245 .00000163 00000+0 51201-4 0 9994 2 43249 86.3961 289.7397 0002116 97.4966 262.6470 14.34217439430364 IRIDIUM 149 1 43250U 18030B 26169.77184558 .00000065 00000+0 16264-4 0 9998 2 43250 86.3959 289.7042 0002267 93.7824 266.3631 14.34217778430387 IRIDIUM 157 1 43251U 18030C 26169.79087350 -.00000005 00000+0 -88970-5 0 9993 2 43251 86.3957 289.7497 0002099 94.4569 265.6867 14.34217332430364 IRIDIUM 140 1 43252U 18030D 26169.74013275 .00000031 00000+0 38760-5 0 9993 2 43252 86.3959 289.7832 0002141 94.0293 266.1148 14.34217499430416 IRIDIUM 145 1 43253U 18030E 26169.72744729 .00000034 00000+0 50743-5 0 9995 2 43253 86.3960 289.7607 0002032 101.7441 258.3982 14.34217457430344 IRIDIUM 146 1 43254U 18030F 26169.70841587 .00000156 00000+0 48463-4 0 9994 2 43254 86.3960 289.7809 0002137 97.0236 263.1203 14.34219252430350 IRIDIUM 148 1 43255U 18030G 26169.74647538 .00000005 00000+0 -52169-5 0 9992 2 43255 86.3957 289.8084 0002159 96.5837 263.5605 14.34217477430399 IRIDIUM 142 1 43256U 18030H 26169.85429941 .00000005 00000+0 -51980-5 0 9991 2 43256 86.3954 289.6521 0002037 99.4347 260.7079 14.34217281430379 IRIDIUM 150 1 43257U 18030J 26169.26443779 .00000049 00000+0 10474-4 0 9991 2 43257 86.3960 290.0151 0002154 93.8168 266.3274 14.34217786430314 IRIDIUM 143 1 43258U 18030K 26169.73379009 .00000052 00000+0 11473-4 0 9992 2 43258 86.3964 289.9114 0002107 96.7508 263.3928 14.34217493430311 IRIDIUM 161 1 43478U 18047C 26169.76360527 .00000276 00000+0 75928-4 0 9995 2 43478 86.4481 87.8120 0002576 83.9353 276.2141 14.43279239425363 IRIDIUM 152 1 43479U 18047D 26169.77627713 .00000310 00000+0 10362-3 0 9999 2 43479 86.3957 87.6680 0002329 82.9098 277.2362 14.34218056422713 IRIDIUM 147 1 43480U 18047E 26169.78261940 .00000035 00000+0 53208-5 0 9990 2 43480 86.3959 87.6705 0002162 86.3528 273.7915 14.34217580422712 IRIDIUM 110 1 43481U 18047F 26169.78896255 .00000163 00000+0 50970-4 0 9998 2 43481 86.3960 87.7598 0002559 81.5366 278.6120 14.34217970422707 IRIDIUM 162 1 43482U 18047G 26169.75730873 .00000272 00000+0 74914-4 0 9994 2 43482 86.4481 87.7059 0002260 82.4537 277.6921 14.43282472425359 IRIDIUM 160 1 43569U 18061A 26169.73479728 -.00000005 00000+0 -89667-5 0 9991 2 43569 86.3959 56.1503 0002155 85.5500 274.5942 14.34217498413593 IRIDIUM 166 1 43570U 18061B 26169.76016751 .00000004 00000+0 -56961-5 0 9998 2 43570 86.3958 56.0901 0002000 86.6088 273.5337 14.34217516413629 IRIDIUM 158 1 43571U 18061C 26169.72845442 .00000003 00000+0 -61552-5 0 9993 2 43571 86.3959 56.1133 0002091 82.6608 277.4826 14.34217365413586 IRIDIUM 165 1 43572U 18061D 26169.75382488 .00000049 00000+0 10364-4 0 9996 2 43572 86.3961 56.1493 0002071 87.2434 272.8999 14.34217395413612 IRIDIUM 155 1 43573U 18061E 26169.78553766 .00000046 00000+0 94692-5 0 9993 2 43573 86.3957 56.0050 0002110 83.2600 276.8836 14.34217860413588 IRIDIUM 154 1 43574U 18061F 26169.76650866 .00000267 00000+0 88353-4 0 9992 2 43574 86.3960 56.1465 0002156 88.5706 271.5737 14.34217428413637 IRIDIUM 163 1 43575U 18061G 26169.74748065 .00000048 00000+0 10060-4 0 9997 2 43575 86.3958 56.0698 0002236 83.2206 276.9244 14.34216575413609 IRIDIUM 156 1 43576U 18061H 26169.72211484 .00000202 00000+0 64915-4 0 9996 2 43576 86.3959 56.0878 0002053 82.8447 277.2982 14.34215835413599 IRIDIUM 164 1 43577U 18061J 26169.70308360 .00000252 00000+0 82762-4 0 9990 2 43577 86.3959 56.1360 0002156 89.4861 270.6582 14.34217784413637 IRIDIUM 159 1 43578U 18061K 26169.74114022 .00000039 00000+0 67960-5 0 9992 2 43578 86.3959 56.0569 0002267 83.6454 276.5000 14.34217665413600 IRIDIUM 180 1 43922U 19002A 26169.74063532 .00000160 00000+0 50042-4 0 9997 2 43922 86.3971 352.9479 0002258 89.3903 270.7552 14.34217630389216 IRIDIUM 176 1 43923U 19002B 26169.51827463 .00000597 00000+0 90779-4 0 9999 2 43923 86.6091 352.9842 0002309 93.0519 267.0962 14.72268563399442 IRIDIUM 168 1 43924U 19002C 26169.80405742 .00000167 00000+0 52469-4 0 9991 2 43924 86.3974 352.9988 0002211 89.7821 270.3629 14.34219595389200 IRIDIUM 173 1 43925U 19002D 26169.79137676 .00000117 00000+0 34763-4 0 9990 2 43925 86.3969 352.8928 0002184 87.5316 272.6130 14.34217104389185 IRIDIUM 169 1 43926U 19002E 26169.85202551 .00000209 00000+0 61942-4 0 9994 2 43926 86.4223 24.4972 0001798 73.7428 286.3967 14.38609637390465 IRIDIUM 172 1 43927U 19002F 26169.78503066 .00000159 00000+0 49890-4 0 9994 2 43927 86.3970 352.9035 0002256 88.6310 271.5144 14.34219106389193 IRIDIUM 175 1 43928U 19002G 26169.73145609 .00000266 00000+0 72534-4 0 9995 2 43928 86.4514 289.8753 0002705 174.4783 185.6448 14.43613460399207 IRIDIUM 171 1 43929U 19002H 26169.76600590 -.00000035 00000+0 -19564-4 0 9994 2 43929 86.3975 353.2177 0001944 91.4736 268.6682 14.34217318389184 IRIDIUM 170 1 43930U 19002J 26169.04868592 .00000610 00000+0 92773-4 0 9995 2 43930 86.6091 353.1830 0002356 89.3305 270.8182 14.72268543399380 IRIDIUM 167 1 43931U 19002K 26169.48058880 .00000012 00000+0 -26088-5 0 9999 2 43931 86.3966 353.0532 0001779 92.7104 267.4296 14.34217549389149 IRIDIUM 181 1 56726U 23068S 26169.70102728 .00000256 00000+0 69926-4 0 9994 2 56726 86.4500 56.1585 0002577 88.3874 271.7622 14.43310294162658 IRIDIUM 177 1 56727U 23068T 26169.40420700 .00000506 00000+0 63133-4 0 9997 2 56727 86.1965 328.2134 0002355 88.5696 271.5795 14.80226116166543 IRIDIUM 174 1 56728U 23068U 26169.78398970 .00000610 00000+0 92826-4 0 9999 2 56728 86.6098 353.0230 0002447 84.2537 275.8959 14.72265744166256 IRIDIUM 178 1 56729U 23068V 26169.86654494 .00000742 00000+0 94180-4 0 9996 2 56729 86.6536 24.6583 0002619 85.4861 274.6659 14.80236167166610 IRIDIUM 179 1 56730U 23068W 26169.86114914 .00000716 00000+0 90726-4 0 9999 2 56730 86.6773 33.6453 0002462 87.8173 272.3330 14.80233445166616